Weather History for KABI - August, 2013

Change the Weather History Date:

Tuesday, August 20, 2013

  Actual Average Record
Temperature  
Mean Temperature 84 °F 83 °F  
Max Temperature 95 °F 94 °F 106 °F (1943)
Min Temperature 72 °F 72 °F 57 °F (1940)
Degree Days  
Heating Degree Days 0 0  
Month to date heating degree days 0 0  
Since 1 June heating degree days 0 1  
Since 1 July heating degree days 0 0  
Cooling Degree Days 19 18  
Month to date cooling degree days 402 372  
Year to date cooling degree days 1948 1765  
Since 1 June cooling degree days 1467 1368  
Growing Degree Days 34 (Base 50)    
Moisture  
Dew Point 58 °F    
Average Humidity 47    
Maximum Humidity 66    
Minimum Humidity 28    
Precipitation  
Precipitation 0.00 in 0.09 in 2.99 in (2004)
Month to date precipitation 0.45 1.62  
Year to date precipitation 16.24 15.99  
Sea Level Pressure  
Sea Level Pressure 29.94 in    
Wind  
Wind Speed 10 mph (SSE)    
Max Wind Speed 18 mph    
Max Gust Speed 24 mph    
Visibility 10 miles    
Events      
T = Trace of Precipitation, MM = Missing Value Source: NWS Daily Summary

Daily Weather History Graph

Daily Weather History Graph

Search for Another Location

Airport or City:

Trip Planner

Search our weather history database for the weather conditions in past years. The results will help you decide how hot, cold, wet, or windy it might be!

Date:

Astronomy

Aug. 20, 2013 Rise Set
Actual Time 7:06 AM CDT 8:17 PM CDT
Civil Twilight 6:40 AM CDT 8:42 PM CDT
Nautical Twilight 6:10 AM CDT 9:13 PM CDT
Astronomical Twilight 5:38 AM CDT 9:44 PM CDT
Moon 7:53 PM CDT (8/20) 6:36 AM CDT (8/20)
Length of Visible Light 14h 02m
Length of Day
13h 11m
Full, 100% of the Moon is Illuminated
Aug 20
Full
Aug 20
Full
Aug 28
Last Quarter
Sep 5
New
Sep 12
First Quarter

Hourly Weather History & Observations

Time (CDT) Temp. Heat Index Dew Point Humidity Pressure Visibility Wind Dir Wind Speed Gust Speed Precip Events Conditions
12:52 AM 79.0 °F - 57.9 °F 48% 29.92 in 10.0 mi SSE 9.2 mph - N/A   Clear
1:52 AM 78.1 °F - 57.9 °F 50% 29.92 in 10.0 mi SSE 10.4 mph - N/A   Clear
2:52 AM 75.9 °F - 59.0 °F 56% 29.92 in 10.0 mi SSE 8.1 mph - N/A   Clear
3:52 AM 75.9 °F - 57.9 °F 54% 29.92 in 10.0 mi SSE 9.2 mph - N/A   Clear
4:52 AM 77.0 °F - 57.9 °F 52% 29.93 in 10.0 mi SSE 5.8 mph - N/A   Mostly Cloudy
5:52 AM 73.9 °F - 59.0 °F 59% 29.94 in 10.0 mi ESE 9.2 mph - N/A   Partly Cloudy
6:52 AM 72.0 °F - 59.0 °F 64% 29.95 in 10.0 mi SSE 8.1 mph - N/A   Clear
7:52 AM 73.0 °F - 59.0 °F 61% 29.96 in 10.0 mi SE 8.1 mph - N/A   Clear
8:52 AM 77.0 °F - 60.1 °F 56% 29.98 in 10.0 mi SSE 8.1 mph - N/A   Clear
9:52 AM 82.0 °F 82.7 °F 61.0 °F 49% 29.98 in 10.0 mi South 12.7 mph - N/A   Clear
10:52 AM 86.0 °F 85.7 °F 60.1 °F 41% 29.99 in 10.0 mi South 11.5 mph - N/A   Clear
11:52 AM 90.0 °F 89.1 °F 59.0 °F 35% 29.98 in 10.0 mi SSE 11.5 mph 20.7 mph N/A   Clear
12:52 PM 91.9 °F 91.2 °F 59.0 °F 33% 29.97 in 10.0 mi South 10.4 mph - N/A   Clear
1:52 PM 91.0 °F 90.2 °F 59.0 °F 34% 29.95 in 10.0 mi SSE 10.4 mph - N/A   Scattered Clouds
2:52 PM 93.9 °F 93.2 °F 59.0 °F 31% 29.94 in 10.0 mi SSE 15.0 mph 23.0 mph N/A   Mostly Cloudy
3:52 PM 93.0 °F 92.0 °F 57.9 °F 31% 29.93 in 10.0 mi SE 10.4 mph 20.7 mph N/A   Scattered Clouds
4:52 PM 95.0 °F 93.7 °F 57.0 °F 28% 29.91 in 10.0 mi ESE 16.1 mph 19.6 mph N/A   Partly Cloudy
5:52 PM 93.0 °F 91.4 °F 55.9 °F 29% 29.91 in 10.0 mi ESE 10.4 mph - N/A   Partly Cloudy
6:52 PM 91.9 °F 90.3 °F 55.9 °F 30% 29.91 in 10.0 mi SSE 13.8 mph - N/A   Clear
7:52 PM 89.1 °F 86.9 °F 54.0 °F 30% 29.91 in 10.0 mi SSE 10.4 mph - N/A   Clear
8:52 PM 84.9 °F 83.3 °F 54.0 °F 34% 29.92 in 10.0 mi SE 10.4 mph - N/A   Clear
9:52 PM 80.1 °F 80.0 °F 54.0 °F 40% 29.94 in 10.0 mi SE 9.2 mph - N/A   Clear
10:52 PM 77.0 °F - 53.1 °F 43% 29.96 in 10.0 mi SE 8.1 mph - N/A   Clear
11:52 PM 75.0 °F - 53.1 °F 46% 29.96 in 10.0 mi SSE 6.9 mph - N/A   Clear